| time (UTC) | temp F | wind direction | speed MPH | gust MPH | rain 1hr in | rain 24hr in | rain mn in | humidity % | barometer mb |
| 20260902143516 | 87 | 264 | 1.0 | 4.0 | 0.00 | 0.00 | 0.00 | 70 | 1019.4 |
| 20260902143041 | 87 | 257 | 2.0 | 4.0 | 0.00 | 0.00 | 0.00 | 70 | 1019.4 |
| 20260902142520 | 86 | 281 | 1.0 | 5.0 | 0.00 | 0.00 | 0.00 | 71 | 1019.3 |
| 20260902142020 | 86 | 285 | 2.0 | 5.0 | 0.00 | 0.00 | 0.00 | 71 | 1019.4 |
| 20260902141538 | 86 | 271 | 2.0 | 5.0 | 0.00 | 0.00 | 0.00 | 72 | 1019.4 |
| 20260902141022 | 86 | 248 | 1.0 | 5.0 | 0.00 | 0.00 | 0.00 | 72 | 1019.3 |
| 20260902140518 | 85 | 266 | 1.0 | 3.0 | 0.00 | 0.00 | 0.00 | 73 | 1019.3 |
| 20260902140041 | 85 | 266 | 1.0 | 4.0 | 0.00 | 0.00 | 0.00 | 73 | 1019.4 |
| 20260902135520 | 85 | 258 | 1.0 | 4.0 | 0.00 | 0.00 | 0.00 | 74 | 1019.5 |
| 20260902135019 | 85 | 281 | 2.0 | 4.0 | 0.00 | 0.00 | 0.00 | 74 | 1019.4 |
| 20260902134537 | 85 | 0 | 1.0 | 2.0 | 0.00 | 0.00 | 0.00 | 74 | 1019.3 |
| 20260902134018 | 85 | 273 | 0.0 | 2.0 | 0.00 | 0.00 | 0.00 | 74 | 1019.3 |
| 20260902133518 | 85 | 0 | 0.0 | 2.0 | 0.00 | 0.00 | 0.00 | 75 | 1019.4 |
| 20260902133035 | 84 | 0 | 0.0 | 3.0 | 0.00 | 0.00 | 0.00 | 77 | 1019.3 |
| 20260902132524 | 83 | 278 | 1.0 | 3.0 | 0.00 | 0.00 | 0.00 | 76 | 1019.3 |
| 20260902132018 | 83 | 212 | 0.0 | 2.0 | 0.00 | 0.00 | 0.00 | 77 | 1019.3 |
| 20260902131539 | 83 | 212 | 0.0 | 2.0 | 0.00 | 0.00 | 0.00 | 78 | 1019.4 |
| 20260902131020 | 83 | 309 | 0.0 | 1.0 | 0.00 | 0.00 | 0.00 | 78 | 1019.4 |
| 20260902130520 | 83 | 0 | 0.0 | 0.0 | 0.00 | 0.00 | 0.00 | 78 | 1019.4 |
| 20260902130041 | 83 | 0 | 0.0 | 0.0 | 0.00 | 0.00 | 0.00 | 78 | 1019.4 |
| 20260902125517 | 83 | 0 | 0.0 | 0.0 | 0.00 | 0.00 | 0.00 | 78 | 1019.3 |
| 20260902125019 | 83 | 0 | 0.0 | 0.0 | 0.00 | 0.00 | 0.00 | 78 | 1019.3 |
| 20260902124534 | 83 | 0 | 0.0 | 0.0 | 0.00 | 0.00 | 0.00 | 78 | 1019.3 |
| 20260902124017 | 83 | 0 | 0.0 | 0.0 | 0.00 | 0.00 | 0.00 | 78 | 1019.2 |
| 20260902123519 | 82 | 0 | 0.0 | 0.0 | 0.00 | 0.00 | 0.00 | 80 | 1019.2 |
| 20260902123040 | 80 | 0 | 0.0 | 0.0 | 0.00 | 0.00 | 0.00 | 82 | 1019.1 |
| 20260902122521 | 79 | 0 | 0.0 | 0.0 | 0.00 | 0.00 | 0.00 | 83 | 1019.1 |
| 20260902122020 | 79 | 0 | 0.0 | 0.0 | 0.00 | 0.00 | 0.00 | 84 | 1019.0 |
| 20260902121539 | 78 | 0 | 0.0 | 0.0 | 0.00 | 0.00 | 0.00 | 86 | 1018.9 |
| 20260902121019 | 77 | 0 | 0.0 | 0.0 | 0.00 | 0.00 | 0.00 | 87 | 1018.9 |
| 20260902120518 | 76 | 0 | 0.0 | 0.0 | 0.00 | 0.00 | 0.00 | 87 | 1018.8 |
| 20260902120040 | 76 | 0 | 0.0 | 0.0 | 0.00 | 0.00 | 0.00 | 88 | 1018.9 |
| 20260902115519 | 75 | 0 | 0.0 | 0.0 | 0.00 | 0.00 | 0.00 | 89 | 1019.0 |
| 20260902115019 | 75 | 0 | 0.0 | 0.0 | 0.00 | 0.00 | 0.00 | 90 | 1018.9 |
| 20260902114538 | 74 | 0 | 0.0 | 0.0 | 0.00 | 0.00 | 0.00 | 91 | 1018.8 |
| 20260902114017 | 74 | 0 | 0.0 | 0.0 | 0.00 | 0.00 | 0.00 | 91 | 1018.7 |
| 20260902113518 | 73 | 0 | 0.0 | 0.0 | 0.00 | 0.00 | 0.00 | 92 | 1018.6 |
| 20260902113037 | 73 | 0 | 0.0 | 0.0 | 0.00 | 0.00 | 0.00 | 92 | 1018.6 |
| 20260902112520 | 73 | 0 | 0.0 | 0.0 | 0.00 | 0.00 | 0.00 | 92 | 1018.6 |
| 20260902112020 | 73 | 0 | 0.0 | 0.0 | 0.00 | 0.00 | 0.00 | 92 | 1018.5 |
| 20260902111545 | 73 | 0 | 0.0 | 0.0 | 0.00 | 0.00 | 0.00 | 92 | 1018.5 |
| 20260902111023 | 73 | 0 | 0.0 | 0.0 | 0.00 | 0.00 | 0.00 | 92 | 1018.6 |
| 20260902110518 | 73 | 0 | 0.0 | 0.0 | 0.00 | 0.00 | 0.00 | 92 | 1018.4 |
| 20260902110037 | 73 | 0 | 0.0 | 0.0 | 0.00 | 0.00 | 0.00 | 91 | 1018.4 |
| 20260902105521 | 73 | 0 | 0.0 | 0.0 | 0.00 | 0.00 | 0.00 | 92 | 1018.4 |
| 20260902105019 | 73 | 0 | 0.0 | 0.0 | 0.00 | 0.00 | 0.00 | 92 | 1018.3 |
| 20260902104542 | 73 | 0 | 0.0 | 0.0 | 0.00 | 0.00 | 0.00 | 92 | 1018.4 |
| 20260902104020 | 73 | 0 | 0.0 | 0.0 | 0.00 | 0.00 | 0.00 | 91 | 1018.3 |
| 20260902103518 | 73 | 0 | 0.0 | 0.0 | 0.00 | 0.00 | 0.00 | 91 | 1018.3 |
| 20260902103039 | 73 | 0 | 0.0 | 0.0 | 0.00 | 0.00 | 0.00 | 91 | 1018.2 |
| 20260902102519 | 73 | 0 | 0.0 | 0.0 | 0.00 | 0.00 | 0.00 | 91 | 1018.1 |
| 20260902102020 | 73 | 0 | 0.0 | 0.0 | 0.00 | 0.00 | 0.00 | 91 | 1018.1 |
| 20260902101540 | 73 | 0 | 0.0 | 0.0 | 0.00 | 0.00 | 0.00 | 91 | 1018.1 |
| 20260902101017 | 74 | 0 | 0.0 | 0.0 | 0.00 | 0.00 | 0.00 | 91 | 1018.1 |
| 20260902100518 | 74 | 0 | 0.0 | 0.0 | 0.00 | 0.00 | 0.00 | 90 | 1018.1 |
| 20260902100039 | 74 | 0 | 0.0 | 0.0 | 0.00 | 0.00 | 0.00 | 90 | 1018.1 |
| 20260902095519 | 74 | 0 | 0.0 | 0.0 | 0.00 | 0.00 | 0.00 | 90 | 1018.1 |
| 20260902095019 | 74 | 0 | 0.0 | 0.0 | 0.00 | 0.00 | 0.00 | 90 | 1018.0 |
| 20260902094545 | 74 | 0 | 0.0 | 0.0 | 0.00 | 0.00 | 0.00 | 90 | 1018.0 |
| 20260902094018 | 74 | 0 | 0.0 | 0.0 | 0.00 | 0.00 | 0.00 | 90 | 1017.9 |
| 20260902093517 | 74 | 0 | 0.0 | 0.0 | 0.00 | 0.00 | 0.00 | 90 | 1017.9 |
| 20260902093037 | 74 | 0 | 0.0 | 0.0 | 0.00 | 0.00 | 0.00 | 90 | 1017.8 |
| 20260902092519 | 74 | 0 | 0.0 | 0.0 | 0.00 | 0.00 | 0.00 | 90 | 1017.7 |
| 20260902092023 | 74 | 0 | 0.0 | 0.0 | 0.00 | 0.00 | 0.00 | 90 | 1017.7 |
| 20260902091545 | 74 | 0 | 0.0 | 0.0 | 0.00 | 0.00 | 0.00 | 89 | 1017.7 |
| 20260902091018 | 74 | 0 | 0.0 | 0.0 | 0.00 | 0.00 | 0.00 | 90 | 1017.5 |
| 20260902090516 | 74 | 0 | 0.0 | 0.0 | 0.00 | 0.00 | 0.00 | 90 | 1017.5 |
| 20260902090035 | 74 | 0 | 0.0 | 0.0 | 0.00 | 0.00 | 0.00 | 90 | 1017.5 |
| 20260902085519 | 74 | 0 | 0.0 | 0.0 | 0.00 | 0.00 | 0.00 | 90 | 1017.5 |
| 20260902085018 | 74 | 0 | 0.0 | 0.0 | 0.00 | 0.00 | 0.00 | 89 | 1017.4 |
| 20260902084536 | 74 | 0 | 0.0 | 0.0 | 0.00 | 0.00 | 0.00 | 90 | 1017.5 |
| 20260902084020 | 74 | 0 | 0.0 | 0.0 | 0.00 | 0.00 | 0.00 | 89 | 1017.5 |
| 20260902083520 | 74 | 0 | 0.0 | 0.0 | 0.00 | 0.00 | 0.00 | 89 | 1017.7 |
| 20260902083036 | 75 | 0 | 0.0 | 0.0 | 0.00 | 0.00 | 0.00 | 89 | 1017.5 |
| 20260902082517 | 75 | 0 | 0.0 | 0.0 | 0.00 | 0.00 | 0.00 | 89 | 1017.6 |
| 20260902082019 | 75 | 0 | 0.0 | 0.0 | 0.00 | 0.00 | 0.00 | 89 | 1017.5 |
| 20260902081547 | 75 | 0 | 0.0 | 0.0 | 0.00 | 0.00 | 0.00 | 89 | 1017.3 |
| 20260902081021 | 75 | 0 | 0.0 | 0.0 | 0.00 | 0.00 | 0.00 | 89 | 1017.4 |
| 20260902080519 | 75 | 0 | 0.0 | 0.0 | 0.00 | 0.00 | 0.00 | 89 | 1017.3 |
| 20260902080036 | 75 | 0 | 0.0 | 0.0 | 0.00 | 0.00 | 0.00 | 89 | 1017.4 |
| 20260902075519 | 75 | 0 | 0.0 | 0.0 | 0.00 | 0.00 | 0.00 | 89 | 1017.3 |
| 20260902075017 | 75 | 0 | 0.0 | 0.0 | 0.00 | 0.00 | 0.00 | 89 | 1017.4 |
| 20260902074537 | 75 | 0 | 0.0 | 0.0 | 0.00 | 0.00 | 0.00 | 88 | 1017.4 |
| 20260902074019 | 75 | 0 | 0.0 | 0.0 | 0.00 | 0.00 | 0.00 | 88 | 1017.3 |
| 20260902073520 | 75 | 0 | 0.0 | 0.0 | 0.00 | 0.00 | 0.00 | 88 | 1017.3 |
| 20260902073036 | 75 | 0 | 0.0 | 0.0 | 0.00 | 0.00 | 0.00 | 88 | 1017.3 |
| 20260902072516 | 75 | 0 | 0.0 | 0.0 | 0.00 | 0.00 | 0.00 | 88 | 1017.4 |
| 20260902072018 | 75 | 0 | 0.0 | 0.0 | 0.00 | 0.00 | 0.00 | 88 | 1017.3 |
| 20260902071535 | 75 | 0 | 0.0 | 0.0 | 0.00 | 0.00 | 0.00 | 88 | 1017.3 |
| 20260902071018 | 75 | 0 | 0.0 | 0.0 | 0.00 | 0.00 | 0.00 | 88 | 1017.4 |
| 20260902070520 | 75 | 0 | 0.0 | 0.0 | 0.00 | 0.00 | 0.00 | 88 | 1017.4 |
| 20260902070036 | 75 | 0 | 0.0 | 0.0 | 0.00 | 0.00 | 0.00 | 88 | 1017.3 |
| 20260902065521 | 75 | 0 | 0.0 | 0.0 | 0.00 | 0.00 | 0.00 | 88 | 1017.3 |
| 20260902065017 | 76 | 0 | 0.0 | 0.0 | 0.00 | 0.00 | 0.00 | 88 | 1017.2 |
| 20260902064539 | 76 | 0 | 0.0 | 0.0 | 0.00 | 0.00 | 0.00 | 88 | 1017.3 |
| 20260902064019 | 76 | 0 | 0.0 | 0.0 | 0.00 | 0.00 | 0.00 | 87 | 1017.4 |
| 20260902063520 | 76 | 0 | 0.0 | 0.0 | 0.00 | 0.00 | 0.00 | 87 | 1017.4 |
| 20260902063038 | 76 | 0 | 0.0 | 0.0 | 0.00 | 0.00 | 0.00 | 87 | 1017.4 |
| 20260902062519 | 76 | 0 | 0.0 | 0.0 | 0.00 | 0.00 | 0.00 | 87 | 1017.4 |
| 20260902062019 | 76 | 0 | 0.0 | 0.0 | 0.00 | 0.00 | 0.00 | 87 | 1017.5 |
| 20260902061544 | 76 | 0 | 0.0 | 0.0 | 0.00 | 0.00 | 0.00 | 87 | 1017.5 |
| 20260902061021 | 76 | 0 | 0.0 | 0.0 | 0.00 | 0.00 | 0.00 | 87 | 1017.4 |
| 20260902060517 | 76 | 0 | 0.0 | 0.0 | 0.00 | 0.00 | 0.00 | 87 | 1017.4 |
| 20260902060038 | 76 | 0 | 0.0 | 0.0 | 0.00 | 0.00 | 0.00 | 87 | 1017.5 |
| 20260902055526 | 76 | 0 | 0.0 | 0.0 | 0.00 | 0.00 | 0.00 | 86 | 1017.5 |
| 20260902055020 | 76 | 0 | 0.0 | 0.0 | 0.00 | 0.00 | 0.00 | 86 | 1017.5 |
| 20260902054538 | 76 | 0 | 0.0 | 0.0 | 0.00 | 0.00 | 0.00 | 87 | 1017.5 |
| 20260902054018 | 76 | 0 | 0.0 | 0.0 | 0.00 | 0.00 | 0.00 | 86 | 1017.6 |
| 20260902053519 | 76 | 0 | 0.0 | 0.0 | 0.00 | 0.00 | 0.00 | 86 | 1017.5 |
| 20260902053040 | 76 | 0 | 0.0 | 0.0 | 0.00 | 0.00 | 0.00 | 86 | 1017.5 |
| 20260902052522 | 76 | 0 | 0.0 | 0.0 | 0.00 | 0.00 | 0.00 | 86 | 1017.4 |
| 20260902052020 | 77 | 0 | 0.0 | 0.0 | 0.00 | 0.00 | 0.00 | 86 | 1017.4 |
| 20260902051538 | 77 | 0 | 0.0 | 0.0 | 0.00 | 0.00 | 0.00 | 86 | 1017.4 |
| 20260902051021 | 77 | 0 | 0.0 | 0.0 | 0.00 | 0.00 | 0.00 | 86 | 1017.4 |
| 20260902050519 | 77 | 0 | 0.0 | 0.0 | 0.00 | 0.00 | 0.00 | 86 | 1017.5 |
| 20260902050040 | 77 | 0 | 0.0 | 0.0 | 0.00 | 0.00 | 0.00 | 86 | 1017.5 |
| 20260902045519 | 77 | 0 | 0.0 | 0.0 | 0.00 | 0.00 | 0.00 | 86 | 1017.4 |
| 20260902045019 | 77 | 0 | 0.0 | 0.0 | 0.00 | 0.00 | 0.00 | 86 | 1017.4 |
| 20260902044538 | 77 | 0 | 0.0 | 0.0 | 0.00 | 0.00 | 0.00 | 86 | 1017.5 |
| 20260902044018 | 77 | 0 | 0.0 | 0.0 | 0.00 | 0.00 | 0.00 | 86 | 1017.5 |
| 20260902043519 | 77 | 0 | 0.0 | 0.0 | 0.00 | 0.00 | 0.00 | 86 | 1017.5 |
| 20260902043036 | 77 | 0 | 0.0 | 0.0 | 0.00 | 0.00 | 0.00 | 86 | 1017.5 |
| 20260902042518 | 77 | 0 | 0.0 | 0.0 | 0.00 | 0.00 | 0.00 | 85 | 1017.5 |
| 20260902042018 | 78 | 0 | 0.0 | 0.0 | 0.00 | 0.00 | 0.00 | 85 | 1017.5 |
| 20260902041539 | 78 | 0 | 0.0 | 0.0 | 0.00 | 0.00 | 0.00 | 85 | 1017.4 |
| 20260902041017 | 78 | 0 | 0.0 | 1.0 | 0.00 | 0.00 | 0.00 | 85 | 1017.5 |
| 20260902040519 | 78 | 309 | 0.0 | 1.0 | 0.00 | 0.00 | 0.00 | 86 | 1017.4 |
| 20260902040036 | 78 | 0 | 0.0 | 0.0 | 0.00 | 0.00 | 0.00 | 86 | 1017.4 |
| 20260902035518 | 78 | 0 | 0.0 | 0.0 | 0.00 | 0.00 | 0.00 | 87 | 1017.4 |
| 20260902035019 | 78 | 0 | 0.0 | 0.0 | 0.00 | 0.00 | 0.00 | 86 | 1017.4 |
| 20260902034536 | 78 | 0 | 0.0 | 0.0 | 0.00 | 0.00 | 0.00 | 87 | 1017.3 |
| 20260902034019 | 78 | 0 | 0.0 | 0.0 | 0.00 | 0.00 | 0.00 | 87 | 1017.3 |
| 20260902033517 | 78 | 0 | 0.0 | 0.0 | 0.00 | 0.00 | 0.00 | 86 | 1017.5 |
| 20260902033043 | 78 | 0 | 0.0 | 0.0 | 0.00 | 0.00 | 0.00 | 86 | 1017.5 |
| 20260902032522 | 78 | 0 | 0.0 | 0.0 | 0.00 | 0.00 | 0.00 | 84 | 1017.5 |
| 20260902032023 | 79 | 0 | 0.0 | 0.0 | 0.00 | 0.00 | 0.00 | 83 | 1017.5 |
| 20260902031538 | 79 | 0 | 0.0 | 0.0 | 0.00 | 0.00 | 0.00 | 82 | 1017.5 |
| 20260902031019 | 79 | 0 | 0.0 | 0.0 | 0.00 | 0.00 | 0.00 | 82 | 1017.5 |
| 20260902030519 | 79 | 0 | 0.0 | 0.0 | 0.00 | 0.00 | 0.00 | 81 | 1017.5 |
| 20260902030035 | 80 | 0 | 0.0 | 0.0 | 0.00 | 0.00 | 0.00 | 80 | 1017.5 |
| 20260902025518 | 80 | 0 | 0.0 | 0.0 | 0.00 | 0.00 | 0.00 | 79 | 1017.5 |
| 20260902025023 | 80 | 0 | 0.0 | 0.0 | 0.00 | 0.00 | 0.00 | 78 | 1017.5 |
| 20260902024537 | 80 | 0 | 0.0 | 0.0 | 0.00 | 0.00 | 0.00 | 78 | 1017.5 |
| 20260902024019 | 80 | 0 | 0.0 | 0.0 | 0.00 | 0.00 | 0.00 | 77 | 1017.5 |
| 20260902023519 | 80 | 0 | 0.0 | 0.0 | 0.00 | 0.00 | 0.00 | 76 | 1017.4 |
| 20260902023038 | 81 | 0 | 0.0 | 0.0 | 0.00 | 0.00 | 0.00 | 74 | 1017.4 |
| 20260902022517 | 81 | 0 | 0.0 | 0.0 | 0.00 | 0.00 | 0.00 | 74 | 1017.4 |
| 20260902022020 | 81 | 0 | 0.0 | 0.0 | 0.00 | 0.00 | 0.00 | 74 | 1017.4 |
| 20260902021546 | 81 | 0 | 0.0 | 0.0 | 0.00 | 0.00 | 0.00 | 73 | 1017.4 |
| 20260902021021 | 81 | 0 | 0.0 | 0.0 | 0.00 | 0.00 | 0.00 | 73 | 1017.4 |
| 20260902020520 | 82 | 0 | 0.0 | 0.0 | 0.00 | 0.00 | 0.00 | 73 | 1017.3 |
| 20260902020037 | 82 | 0 | 0.0 | 0.0 | 0.00 | 0.00 | 0.00 | 72 | 1017.3 |
| 20260902015517 | 82 | 0 | 0.0 | 0.0 | 0.00 | 0.00 | 0.00 | 71 | 1017.4 |
| 20260902015018 | 83 | 0 | 0.0 | 0.0 | 0.00 | 0.00 | 0.00 | 71 | 1017.3 |
| 20260902014539 | 83 | 0 | 0.0 | 0.0 | 0.00 | 0.00 | 0.00 | 70 | 1017.3 |
| 20260902014023 | 83 | 0 | 0.0 | 0.0 | 0.00 | 0.00 | 0.00 | 69 | 1017.4 |
| 20260902013519 | 83 | 0 | 0.0 | 0.0 | 0.00 | 0.00 | 0.00 | 68 | 1017.2 |
| 20260902013037 | 84 | 0 | 0.0 | 0.0 | 0.00 | 0.00 | 0.00 | 68 | 1017.4 |
| 20260902012519 | 84 | 0 | 0.0 | 0.0 | 0.00 | 0.00 | 0.00 | 69 | 1017.4 |
| 20260902012018 | 84 | 0 | 0.0 | 0.0 | 0.00 | 0.00 | 0.00 | 69 | 1017.2 |
| 20260902011539 | 84 | 0 | 0.0 | 0.0 | 0.00 | 0.00 | 0.00 | 69 | 1017.2 |
| 20260902011018 | 85 | 0 | 0.0 | 0.0 | 0.00 | 0.00 | 0.00 | 69 | 1017.0 |
| 20260902010518 | 85 | 0 | 0.0 | 0.0 | 0.00 | 0.00 | 0.00 | 69 | 1017.0 |
| 20260902010053 | 85 | 0 | 0.0 | 0.0 | 0.00 | 0.00 | 0.00 | 68 | 1016.9 |
| 20260902005520 | 86 | 0 | 0.0 | 0.0 | 0.00 | 0.00 | 0.00 | 68 | 1016.9 |
| 20260902005018 | 86 | 0 | 0.0 | 0.0 | 0.00 | 0.00 | 0.00 | 67 | 1016.8 |
| 20260902004544 | 87 | 0 | 0.0 | 0.0 | 0.00 | 0.00 | 0.00 | 66 | 1016.7 |
| 20260902004023 | 87 | 0 | 0.0 | 0.0 | 0.00 | 0.00 | 0.00 | 66 | 1016.8 |
| 20260902003519 | 88 | 0 | 0.0 | 0.0 | 0.00 | 0.00 | 0.00 | 64 | 1016.9 |
| 20260902003038 | 88 | 0 | 0.0 | 0.0 | 0.00 | 0.00 | 0.00 | 64 | 1016.8 |
| 20260902002520 | 89 | 0 | 0.0 | 0.0 | 0.00 | 0.00 | 0.00 | 63 | 1016.7 |
| 20260902002021 | 89 | 0 | 0.0 | 0.0 | 0.00 | 0.00 | 0.00 | 63 | 1016.7 |
| 20260902001535 | 90 | 0 | 0.0 | 1.0 | 0.00 | 0.00 | 0.00 | 61 | 1016.7 |
| 20260902001020 | 91 | 0 | 0.0 | 1.0 | 0.00 | 0.00 | 0.00 | 60 | 1016.8 |
| 20260902000519 | 92 | 309 | 0.0 | 0.0 | 0.00 | 0.00 | 0.00 | 58 | 1016.7 |
| 20260902000050 | 93 | 309 | 0.0 | 0.0 | 0.00 | 0.00 | 0.00 | 57 | 1016.8 |
| 20260901235520 | 94 | 0 | 0.0 | 0.0 | 0.00 | 0.00 | 0.00 | 55 | 1016.8 |
| 20260901235019 | 95 | 0 | 0.0 | 0.0 | 0.00 | 0.00 | 0.00 | 54 | 1016.9 |
| 20260901234603 | 95 | 0 | 0.0 | 0.0 | 0.00 | 0.00 | 0.00 | 54 | 1017.0 |
| 20260901234017 | 95 | 309 | 0.0 | 0.0 | 0.00 | 0.00 | 0.00 | 53 | 1017.0 |
| 20260901233520 | 95 | 0 | 0.0 | 0.0 | 0.00 | 0.00 | 0.00 | 52 | 1017.0 |
| 20260901233037 | 95 | 0 | 0.0 | 1.0 | 0.00 | 0.00 | 0.00 | 53 | 1017.0 |
| 20260901232517 | 95 | 0 | 0.0 | 1.0 | 0.00 | 0.00 | 0.00 | 53 | 1017.0 |
| 20260901232020 | 94 | 309 | 0.0 | 3.0 | 0.00 | 0.00 | 0.00 | 54 | 1017.1 |
| 20260901231546 | 94 | 309 | 1.0 | 4.0 | 0.00 | 0.00 | 0.00 | 54 | 1017.1 |
| 20260901231020 | 94 | 351 | 1.0 | 4.0 | 0.00 | 0.00 | 0.00 | 54 | 1017.2 |
| 20260901230520 | 95 | 37 | 2.0 | 4.0 | 0.00 | 0.00 | 0.00 | 51 | 1017.1 |
| 20260901230054 | 96 | 252 | 1.0 | 2.0 | 0.00 | 0.00 | 0.00 | 49 | 1017.0 |
| 20260901225518 | 97 | 248 | 0.0 | 2.0 | 0.00 | 0.00 | 0.00 | 49 | 1017.0 |
| 20260901225019 | 97 | 338 | 0.0 | 2.0 | 0.00 | 0.00 | 0.00 | 48 | 1017.1 |
| 20260901224538 | 97 | 0 | 0.0 | 1.0 | 0.00 | 0.00 | 0.00 | 51 | 1017.1 |
| 20260901224015 | 96 | 338 | 0.0 | 3.0 | 0.00 | 0.00 | 0.00 | 50 | 1017.1 |
| 20260901223516 | 95 | 15 | 1.0 | 3.0 | 0.00 | 0.00 | 0.00 | 51 | 1017.2 |
| 20260901223056 | 95 | 340 | 1.0 | 3.0 | 0.00 | 0.00 | 0.00 | 52 | 1017.1 |
| 20260901222520 | 95 | 275 | 1.0 | 3.0 | 0.00 | 0.00 | 0.00 | 54 | 1017.1 |
| 20260901222023 | 94 | 14 | 1.0 | 4.0 | 0.00 | 0.00 | 0.00 | 52 | 1017.0 |
| 20260901221537 | 94 | 283 | 1.0 | 4.0 | 0.00 | 0.00 | 0.00 | 52 | 1016.9 |
| 20260901221020 | 95 | 279 | 1.0 | 4.0 | 0.00 | 0.00 | 0.00 | 52 | 1016.9 |
| 20260901220518 | 95 | 347 | 1.0 | 3.0 | 0.00 | 0.00 | 0.00 | 52 | 1016.9 |
| 20260901220037 | 96 | 267 | 1.0 | 4.0 | 0.00 | 0.00 | 0.00 | 51 | 1017.0 |
| 20260901215519 | 95 | 267 | 0.0 | 5.0 | 0.00 | 0.00 | 0.00 | 50 | 1016.9 |
| 20260901215021 | 95 | 267 | 1.0 | 5.0 | 0.00 | 0.00 | 0.00 | 51 | 1016.8 |
| 20260901214539 | 96 | 291 | 2.0 | 5.0 | 0.00 | 0.00 | 0.00 | 50 | 1016.8 |
| 20260901214024 | 96 | 0 | 0.0 | 4.0 | 0.00 | 0.00 | 0.00 | 52 | 1016.8 |
| 20260901213517 | 95 | 340 | 1.0 | 4.0 | 0.00 | 0.00 | 0.00 | 52 | 1016.8 |
| 20260901213042 | 96 | 357 | 1.0 | 4.0 | 0.00 | 0.00 | 0.00 | 49 | 1016.8 |
| 20260901212517 | 96 | 359 | 1.0 | 4.0 | 0.00 | 0.00 | 0.00 | 51 | 1016.9 |
| 20260901212017 | 95 | 360 | 0.0 | 4.0 | 0.00 | 0.00 | 0.00 | 51 | 1016.7 |
| 20260901211545 | 96 | 359 | 1.0 | 4.0 | 0.00 | 0.00 | 0.00 | 51 | 1016.8 |
| 20260901211019 | 94 | 13 | 2.0 | 4.0 | 0.00 | 0.00 | 0.00 | 50 | 1016.8 |
| 20260901210524 | 95 | 351 | 2.0 | 3.0 | 0.00 | 0.00 | 0.00 | 51 | 1017.0 |
| 20260901210035 | 95 | 309 | 1.0 | 4.0 | 0.00 | 0.00 | 0.00 | 51 | 1017.1 |
| 20260901205518 | 95 | 337 | 2.0 | 4.0 | 0.00 | 0.00 | 0.00 | 52 | 1017.1 |
| 20260901205018 | 95 | 330 | 2.0 | 4.0 | 0.00 | 0.00 | 0.00 | 51 | 1017.1 |
| 20260901204543 | 96 | 283 | 1.0 | 6.0 | 0.00 | 0.00 | 0.00 | 50 | 1017.2 |
| 20260901204017 | 96 | 30 | 1.0 | 6.0 | 0.00 | 0.00 | 0.00 | 50 | 1017.2 |
| 20260901203522 | 96 | 36 | 2.0 | 4.0 | 0.00 | 0.00 | 0.00 | 49 | 1017.2 |
| 20260901203037 | 96 | 254 | 0.0 | 2.0 | 0.00 | 0.00 | 0.00 | 49 | 1017.3 |
| 20260901202516 | 95 | 255 | 1.0 | 7.0 | 0.00 | 0.00 | 0.00 | 49 | 1017.3 |
| 20260901202018 | 95 | 340 | 3.0 | 7.0 | 0.00 | 0.00 | 0.00 | 52 | 1017.3 |
| 20260901201537 | 95 | 284 | 4.0 | 7.0 | 0.00 | 0.00 | 0.00 | 51 | 1017.5 |
| 20260901201020 | 95 | 287 | 1.0 | 6.0 | 0.00 | 0.00 | 0.00 | 52 | 1017.3 |
| 20260901200522 | 94 | 248 | 2.0 | 6.0 | 0.00 | 0.00 | 0.00 | 52 | 1017.3 |
| 20260901200052 | 93 | 289 | 3.0 | 6.0 | 0.00 | 0.00 | 0.00 | 54 | 1017.5 |
| 20260901195520 | 93 | 339 | 2.0 | 6.0 | 0.00 | 0.00 | 0.00 | 53 | 1017.5 |
| 20260901195020 | 94 | 275 | 2.0 | 7.0 | 0.00 | 0.00 | 0.00 | 54 | 1017.6 |
| 20260901194549 | 93 | 314 | 3.0 | 7.0 | 0.00 | 0.00 | 0.00 | 55 | 1017.5 |
| 20260901194017 | 93 | 263 | 3.0 | 6.0 | 0.00 | 0.00 | 0.00 | 54 | 1017.6 |
| 20260901193516 | 93 | 340 | 3.0 | 6.0 | 0.00 | 0.00 | 0.00 | 57 | 1017.6 |
| 20260901193036 | 92 | 22 | 1.0 | 4.0 | 0.00 | 0.00 | 0.00 | 56 | 1017.7 |
| 20260901192518 | 92 | 324 | 0.0 | 4.0 | 0.00 | 0.00 | 0.00 | 57 | 1017.7 |
| 20260901192021 | 92 | 287 | 1.0 | 5.0 | 0.00 | 0.00 | 0.00 | 58 | 1017.8 |
| 20260901191535 | 93 | 316 | 1.0 | 5.0 | 0.00 | 0.00 | 0.00 | 58 | 1018.0 |
| 20260901191025 | 93 | 249 | 1.0 | 6.0 | 0.00 | 0.00 | 0.00 | 58 | 1017.9 |
| 20260901190518 | 93 | 341 | 2.0 | 8.0 | 0.00 | 0.00 | 0.00 | 57 | 1018.0 |
| 20260901190035 | 93 | 217 | 2.0 | 8.0 | 0.00 | 0.00 | 0.00 | 59 | 1018.0 |
| 20260901185519 | 93 | 300 | 2.0 | 6.0 | 0.00 | 0.00 | 0.00 | 57 | 1018.2 |
| 20260901185019 | 93 | 43 | 0.0 | 6.0 | 0.00 | 0.00 | 0.00 | 55 | 1018.2 |
| 20260901184535 | 93 | 243 | 3.0 | 9.0 | 0.00 | 0.00 | 0.00 | 55 | 1018.3 |
| 20260901184018 | 93 | 340 | 3.0 | 9.0 | 0.00 | 0.00 | 0.00 | 56 | 1018.3 |
| 20260901183518 | 93 | 343 | 3.0 | 6.0 | 0.00 | 0.00 | 0.00 | 56 | 1018.4 |
| 20260901183043 | 93 | 30 | 3.0 | 6.0 | 0.00 | 0.00 | 0.00 | 56 | 1018.4 |
| 20260901182519 | 93 | 290 | 2.0 | 8.0 | 0.00 | 0.00 | 0.00 | 58 | 1018.5 |
| 20260901182023 | 93 | 299 | 2.0 | 9.0 | 0.00 | 0.00 | 0.00 | 57 | 1018.5 |
| 20260901181546 | 92 | 290 | 5.0 | 9.0 | 0.00 | 0.00 | 0.00 | 59 | 1018.6 |
| 20260901181018 | 92 | 226 | 2.0 | 9.0 | 0.00 | 0.00 | 0.00 | 57 | 1018.6 |
| 20260901180520 | 92 | 233 | 2.0 | 9.0 | 0.00 | 0.00 | 0.00 | 59 | 1018.7 |
| 20260901180037 | 92 | 264 | 3.0 | 9.0 | 0.00 | 0.00 | 0.00 | 60 | 1018.6 |
| 20260901175524 | 91 | 272 | 3.0 | 11.0 | 0.00 | 0.00 | 0.00 | 59 | 1018.7 |
| 20260901175017 | 91 | 358 | 4.0 | 11.0 | 0.00 | 0.00 | 0.00 | 59 | 1018.6 |
| 20260901174535 | 91 | 257 | 3.0 | 11.0 | 0.00 | 0.00 | 0.00 | 60 | 1018.7 |
| 20260901174020 | 91 | 253 | 5.0 | 9.0 | 0.00 | 0.00 | 0.00 | 61 | 1018.7 |
| 20260901173518 | 91 | 257 | 5.0 | 9.0 | 0.00 | 0.00 | 0.00 | 61 | 1018.7 |
| 20260901173050 | 91 | 213 | 4.0 | 10.0 | 0.00 | 0.00 | 0.00 | 61 | 1018.9 |
| 20260901172520 | 91 | 275 | 3.0 | 10.0 | 0.00 | 0.00 | 0.00 | 62 | 1019.0 |
| 20260901172017 | 90 | 322 | 3.0 | 12.0 | 0.00 | 0.00 | 0.00 | 63 | 1019.0 |
| 20260901171535 | 90 | 300 | 5.0 | 12.0 | 0.00 | 0.00 | 0.00 | 62 | 1019.2 |
| 20260901171017 | 90 | 238 | 6.0 | 11.0 | 0.00 | 0.00 | 0.00 | 60 | 1019.1 |
| 20260901170522 | 91 | 271 | 3.0 | 11.0 | 0.00 | 0.00 | 0.00 | 62 | 1019.2 |
| 20260901170036 | 91 | 260 | 6.0 | 12.0 | 0.00 | 0.00 | 0.00 | 61 | 1019.2 |
| 20260901165517 | 90 | 264 | 6.0 | 15.0 | 0.00 | 0.00 | 0.00 | 62 | 1019.2 |
| 20260901165019 | 90 | 321 | 5.0 | 15.0 | 0.00 | 0.00 | 0.00 | 63 | 1019.4 |
| 20260901164534 | 90 | 242 | 7.0 | 12.0 | 0.00 | 0.00 | 0.00 | 62 | 1019.3 |
| 20260901164020 | 90 | 283 | 6.0 | 12.0 | 0.00 | 0.00 | 0.00 | 62 | 1019.3 |
| 20260901163519 | 90 | 304 | 4.0 | 12.0 | 0.00 | 0.00 | 0.00 | 63 | 1019.3 |
| 20260901163036 | 90 | 259 | 7.0 | 12.0 | 0.00 | 0.00 | 0.00 | 63 | 1019.2 |
| 20260901162520 | 90 | 304 | 5.0 | 9.0 | 0.00 | 0.00 | 0.00 | 63 | 1019.2 |
| 20260901162016 | 89 | 302 | 5.0 | 12.0 | 0.00 | 0.00 | 0.00 | 65 | 1019.4 |
| 20260901161535 | 89 | 276 | 5.0 | 12.0 | 0.00 | 0.00 | 0.00 | 65 | 1019.4 |
| 20260901161020 | 89 | 300 | 5.0 | 13.0 | 0.00 | 0.00 | 0.00 | 64 | 1019.4 |
| 20260901160517 | 89 | 295 | 6.0 | 13.0 | 0.00 | 0.00 | 0.00 | 64 | 1019.5 |
| 20260901160041 | 90 | 281 | 5.0 | 8.0 | 0.00 | 0.00 | 0.00 | 65 | 1019.4 |
| 20260901155520 | 89 | 271 | 2.0 | 7.0 | 0.00 | 0.00 | 0.00 | 65 | 1019.5 |
| 20260901155019 | 89 | 293 | 3.0 | 10.0 | 0.00 | 0.00 | 0.00 | 66 | 1019.4 |
| 20260901154537 | 89 | 240 | 4.0 | 10.0 | 0.00 | 0.00 | 0.00 | 66 | 1019.5 |
| 20260901154019 | 89 | 243 | 3.0 | 8.0 | 0.00 | 0.00 | 0.00 | 68 | 1019.5 |
| 20260901153518 | 88 | 158 | 4.0 | 11.0 | 0.00 | 0.00 | 0.00 | 67 | 1019.5 |
| 20260901153040 | 88 | 210 | 4.0 | 11.0 | 0.00 | 0.00 | 0.00 | 67 | 1019.5 |
| 20260901152516 | 88 | 307 | 2.0 | 11.0 | 0.00 | 0.00 | 0.00 | 68 | 1019.5 |
| 20260901152019 | 87 | 290 | 4.0 | 11.0 | 0.00 | 0.00 | 0.00 | 68 | 1019.5 |
| 20260901151536 | 87 | 205 | 5.0 | 11.0 | 0.00 | 0.00 | 0.00 | 67 | 1019.5 |
| 20260901151020 | 87 | 255 | 3.0 | 7.0 | 0.00 | 0.00 | 0.00 | 68 | 1019.6 |
| 20260901150519 | 87 | 249 | 2.0 | 7.0 | 0.00 | 0.00 | 0.00 | 68 | 1019.6 |
| 20260901150038 | 87 | 276 | 3.0 | 9.0 | 0.00 | 0.00 | 0.00 | 70 | 1019.6 |
| 20260901145519 | 86 | 296 | 4.0 | 10.0 | 0.00 | 0.00 | 0.00 | 70 | 1019.7 |
| 20260901145019 | 86 | 226 | 5.0 | 10.0 | 0.00 | 0.00 | 0.00 | 69 | 1019.8 |
| 20260901144538 | 86 | 297 | 2.0 | 6.0 | 0.00 | 0.00 | 0.00 | 70 | 1019.6 |
| 20260901144018 | 86 | 278 | 2.0 | 8.0 | 0.00 | 0.00 | 0.00 | 71 | 1019.6 |